EW4699 Weather Reports


time (UTC)temp
C
wind
direction
speed
KPH
gust
KPH
rain 1hr
cm
rain 24hr
cm
rain mn
cm
humidity
%
barometer
mb
20260507090051 8 127 3.2 11.3 0.00 0.00 0.00 40 1017.0
20260507084654 8 116 1.6 8.0 0.00 0.00 0.00 41 1017.1
20260507083056 7 98 4.8 11.3 0.00 0.00 0.00 40 1017.0
20260507081651 7 63 0.0 9.7 0.00 0.00 0.00 42 1017.0
20260507080114 7 9 3.2 9.7 0.00 0.00 0.00 46 1016.8
20260507074653 7 46 4.8 11.3 0.00 0.00 0.00 46 1016.8
20260507073100 6 59 0.0 11.3 0.00 0.00 0.00 52 1016.7
20260507071652 6 78 1.6 8.0 0.00 0.00 0.00 56 1016.7
20260507070053 6 42 3.2 8.0 0.00 0.00 0.00 55 1016.6
20260507064653 5 71 1.6 9.7 0.00 0.00 0.00 59 1016.6
20260507063055 5 86 1.6 6.4 0.00 0.00 0.00 59 1016.6
20260507061651 5 75 0.0 8.0 0.00 0.00 0.00 57 1016.4
20260507060052 5 94 0.0 4.8 0.00 0.00 0.00 58 1016.3
20260507054652 5 42 0.0 4.8 0.00 0.00 0.00 58 1016.2
20260507053055 4 70 0.0 1.6 0.00 0.00 0.00 59 1016.1
20260507051652 4 61 0.0 1.6 0.00 0.00 0.00 58 1016.0
20260507050052 3 59 0.0 4.8 0.00 0.00 0.00 60 1016.0
20260507044653 2 355 3.2 6.4 0.00 0.00 0.00 59 1015.9
20260507043052 2 346 0.0 0.0 0.00 0.00 0.00 62 1015.8
20260507041652 2 346 0.0 0.0 0.00 0.00 0.00 65 1015.8
20260507034653 0 326 0.0 0.0 0.00 0.00 0.00 74 1015.5
20260507033056 0 326 0.0 3.2 0.00 0.00 0.00 77 1015.4
20260507031652 -1 326 0.0 4.8 0.00 0.00 0.00 79 1015.3
20260507030056 -1 317 0.0 0.0 0.00 0.00 0.00 76 1015.2
20260507024652 -1 317 0.0 0.0 0.00 0.00 0.00 74 1015.1
20260507023053 0 317 0.0 0.0 0.00 0.00 0.00 72 1015.0
20260507021652 0 317 0.0 3.2 0.00 0.00 0.00 70 1014.9
20260507014653 0 317 0.0 3.2 0.00 0.00 0.00 66 1014.9
20260507013053 0 317 0.0 0.0 0.00 0.00 0.00 64 1014.7
20260507011653 0 317 0.0 1.6 0.00 0.00 0.00 65 1014.7
20260507010055 0 317 0.0 0.0 0.00 0.00 0.00 67 1014.5
20260507004652 0 317 0.0 0.0 0.00 0.00 0.00 65 1014.5
20260507003053 1 317 0.0 0.0 0.00 0.00 0.00 63 1014.3
20260507001655 1 317 0.0 0.0 0.00 0.00 0.00 61 1014.2
20260507000058 2 317 0.0 0.0 0.00 0.00 0.00 57 1014.1
20260506234653 2 317 0.0 3.2 0.00 0.00 0.00 54 1014.0
20260506233053 3 325 0.0 4.8 0.00 0.00 0.00 51 1014.0
20260506231653 3 360 3.2 8.0 0.00 0.00 0.00 49 1013.8
20260506230054 3 5 3.2 9.7 0.00 0.00 0.00 48 1013.7
20260506224653 3 342 3.2 8.0 0.00 0.00 0.00 48 1013.6
20260506223054 3 318 3.2 14.5 0.00 0.00 0.00 47 1013.6
20260506221653 3 346 1.6 8.0 0.00 0.00 0.00 48 1013.5
20260506214653 3 321 0.0 3.2 0.00 0.00 0.00 49 1013.3
20260506213101 3 344 1.6 6.4 0.00 0.00 0.00 52 1013.1
20260506211653 4 56 1.6 4.8 0.00 0.00 0.00 54 1013.0
20260506210107 5 350 0.0 4.8 0.00 0.00 0.00 52 1012.7
20260506204653 5 338 0.0 0.0 0.00 0.00 0.00 54 1012.6
20260506203140 4 337 0.0 0.0 0.00 0.00 0.00 53 1012.6
20260506201653 5 337 0.0 0.0 0.00 0.00 0.00 52 1012.5
20260506200053 5 337 0.0 0.0 0.00 0.00 0.00 50 1012.4
20260506194654 6 327 0.0 0.0 0.00 0.00 0.00 50 1012.3
20260506193053 6 327 0.0 0.0 0.00 0.00 0.00 48 1012.2
20260506191653 7 327 0.0 0.0 0.00 0.00 0.00 47 1012.0
20260506190056 7 327 0.0 0.0 0.00 0.00 0.00 43 1011.9
20260506184654 7 327 0.0 1.6 0.00 0.00 0.00 43 1011.9
20260506183058 8 317 0.0 0.0 0.00 0.00 0.00 46 1011.7
20260506181654 8 317 0.0 0.0 0.00 0.00 0.00 40 1011.5
20260506180055 8 317 0.0 1.6 0.00 0.00 0.00 40 1011.5
20260506174654 8 317 0.0 4.8 0.00 0.00 0.00 37 1011.4
20260506173057 9 313 1.6 8.0 0.00 0.00 0.00 33 1011.3
20260506171654 10 331 3.2 11.3 0.00 0.00 0.00 31 1011.3
20260506170054 10 295 4.8 9.7 0.00 0.00 0.00 32 1011.2
20260506164654 10 319 3.2 8.0 0.00 0.00 0.00 30 1011.2
20260506163114 10 274 4.8 11.3 0.00 0.00 0.00 29 1011.3
20260506161654 11 306 4.8 9.7 0.00 0.00 0.00 27 1011.1
20260506160054 10 327 1.6 4.8 0.00 0.00 0.00 27 1011.0
20260506154654 10 320 0.0 9.7 0.00 0.00 0.00 27 1011.1
20260506153112 10 295 4.8 20.9 0.00 0.00 0.00 27 1011.1
20260506151654 11 207 6.4 16.1 0.00 0.00 0.00 23 1011.2
20260506150054 11 267 0.0 3.2 0.00 0.00 0.00 26 1011.2
20260506144655 10 261 1.6 4.8 0.00 0.00 0.00 27 1011.2
20260506143054 11 282 3.2 8.0 0.00 0.00 0.00 26 1011.4
20260506141654 11 281 1.6 14.5 0.00 0.00 0.00 26 1011.5
20260506140056 11 321 6.4 11.3 0.00 0.00 0.00 26 1011.5
20260506134654 11 205 4.8 12.9 0.00 0.00 0.00 26 1011.5
20260506133055 10 275 1.6 11.3 0.00 0.00 0.00 29 1011.5
20260506131656 11 169 8.0 14.5 0.00 0.00 0.00 28 1011.6
20260506130056 11 277 4.8 12.9 0.00 0.00 0.00 28 1011.8
20260506124654 11 196 3.2 8.0 0.00 0.00 0.00 27 1011.8
20260506123110 10 259 4.8 14.5 0.00 0.00 0.00 27 1012.0
20260506121654 11 180 3.2 12.9 0.00 0.00 0.00 26 1012.1
20260506120054 11 236 1.6 9.7 0.00 0.00 0.00 27 1012.2
20260506114654 10 267 3.2 11.3 0.00 0.00 0.00 27 1012.2
20260506113055 10 300 4.8 12.9 0.00 0.00 0.00 26 1012.4
20260506111654 10 301 1.6 16.1 0.00 0.00 0.00 28 1012.4
20260506104654 9 169 3.2 9.7 0.00 0.00 0.00 30 1012.5
20260506103103 8 144 3.2 9.7 0.00 0.00 0.00 32 1012.6
20260506101654 8 312 6.4 11.3 0.00 0.00 0.00 31 1012.6
20260506100058 8 292 1.6 11.3 0.00 0.00 0.00 31 1012.7
20260506094655 8 355 3.2 14.5 0.00 0.00 0.00 34 1012.8
20260506093059 7 42 0.0 12.9 0.00 0.00 0.00 39 1012.8
20260506091658 7 32 0.0 11.3 0.00 0.00 0.00 40 1012.9